Information on these data can be found in provided Readme document
Contact Info: Zachary Fasnacht (zachary.fasnacht@ssaihq.com); Nickolay Krotkov (nickolay.a.krotkov@nasa.gov); Lok Lamsal (lok.lamsal@nasa.gov)

FillValue: -999.
ScaleFactor: 1e15
Units: molecules/cm^2

Date(yyyy-mm-dd),City,Country,LonCenter,LatCenter,BoundingCoordinates,Median,Q1,Q3,Mean,Baseline_Median,Baseline_Q1,Baseline_Q3,Baseline_Mean,NumGoodSamples,NumTotalSamples
2015-01-01,Milan,Italy,9.1667,45.4501,[8.6667 44.9501 9.6667 45.9501],6.614,4.114,12.009,8.394,8.125,4.994,12.289,9.204,136.0,617.0
2015-01-02,Milan,Italy,9.1667,45.4501,[8.6667 44.9501 9.6667 45.9501],7.798,5.04,12.234,9.094,8.181,5.041,11.794,9.017,172.0,620.0
2015-01-03,Milan,Italy,9.1667,45.4501,[8.6667 44.9501 9.6667 45.9501],8.561,5.625,12.68,9.795,8.354,5.197,11.918,9.181,157.0,620.0
2015-01-04,Milan,Italy,9.1667,45.4501,[8.6667 44.9501 9.6667 45.9501],8.561,5.625,12.68,9.781,8.774,5.402,12.808,9.699,158.0,631.0
2015-01-05,Milan,Italy,9.1667,45.4501,[8.6667 44.9501 9.6667 45.9501],8.607,5.625,12.502,9.706,8.618,5.334,12.897,9.605,185.0,617.0
2015-01-06,Milan,Italy,9.1667,45.4501,[8.6667 44.9501 9.6667 45.9501],8.56,5.625,12.234,9.792,8.751,5.39,13.326,9.758,175.0,617.0
2015-01-07,Milan,Italy,9.1667,45.4501,[8.6667 44.9501 9.6667 45.9501],8.56,5.625,12.234,9.788,8.73,5.213,13.227,9.662,176.0,625.0
2015-01-08,Milan,Italy,9.1667,45.4501,[8.6667 44.9501 9.6667 45.9501],8.847,5.807,12.234,9.99,8.698,5.263,12.978,9.652,164.0,619.0
2015-01-09,Milan,Italy,9.1667,45.4501,[8.6667 44.9501 9.6667 45.9501],8.847,5.807,12.234,9.99,8.704,5.426,12.863,9.608,164.0,622.0
2015-01-10,Milan,Italy,9.1667,45.4501,[8.6667 44.9501 9.6667 45.9501],8.653,5.807,12.057,9.965,8.559,5.021,12.988,9.45,155.0,586.0
2015-01-11,Milan,Italy,9.1667,45.4501,[8.6667 44.9501 9.6667 45.9501],8.452,6.044,11.433,8.756,7.962,4.707,12.856,8.984,138.0,587.0
2015-01-12,Milan,Italy,9.1667,45.4501,[8.6667 44.9501 9.6667 45.9501],9.383,6.822,12.009,9.501,9.101,5.089,14.431,10.494,129.0,574.0
2015-01-13,Milan,Italy,9.1667,45.4501,[8.6667 44.9501 9.6667 45.9501],9.935,7.827,12.234,10.301,9.23,5.667,14.616,10.854,100.0,581.0
2015-01-14,Milan,Italy,9.1667,45.4501,[8.6667 44.9501 9.6667 45.9501],9.935,7.827,12.234,10.301,10.288,6.303,17.039,12.156,100.0,587.0
2015-01-15,Milan,Italy,9.1667,45.4501,[8.6667 44.9501 9.6667 45.9501],9.974,8.212,12.234,10.456,10.575,6.4,17.978,12.664,82.0,580.0
2015-01-16,Milan,Italy,9.1667,45.4501,[8.6667 44.9501 9.6667 45.9501],9.978,8.212,12.234,10.631,11.114,6.608,17.622,12.561,114.0,581.0
2015-01-17,Milan,Italy,9.1667,45.4501,[8.6667 44.9501 9.6667 45.9501],9.806,8.212,11.661,10.062,12.348,7.285,18.404,13.555,78.0,581.0
2015-01-18,Milan,Italy,9.1667,45.4501,[8.6667 44.9501 9.6667 45.9501],9.858,7.97,11.873,9.895,12.644,7.517,18.106,13.5,115.0,583.0
2015-01-19,Milan,Italy,9.1667,45.4501,[8.6667 44.9501 9.6667 45.9501],9.924,7.97,11.873,9.916,12.874,7.693,18.07,13.757,114.0,581.0
2015-01-20,Milan,Italy,9.1667,45.4501,[8.6667 44.9501 9.6667 45.9501],9.924,7.97,11.661,10.076,13.255,8.371,18.416,14.175,87.0,591.0
2015-01-21,Milan,Italy,9.1667,45.4501,[8.6667 44.9501 9.6667 45.9501],10.109,8.084,12.024,10.404,13.316,8.285,18.618,14.186,94.0,579.0
2015-01-22,Milan,Italy,9.1667,45.4501,[8.6667 44.9501 9.6667 45.9501],10.109,8.084,12.024,10.411,13.406,8.477,18.484,14.247,93.0,579.0
2015-01-23,Milan,Italy,9.1667,45.4501,[8.6667 44.9501 9.6667 45.9501],9.937,7.97,12.088,10.447,13.812,8.804,18.655,14.591,109.0,586.0
2015-01-24,Milan,Italy,9.1667,45.4501,[8.6667 44.9501 9.6667 45.9501],9.937,7.97,12.088,10.447,14.192,8.997,19.121,14.866,109.0,581.0
2015-01-25,Milan,Italy,9.1667,45.4501,[8.6667 44.9501 9.6667 45.9501],10.28,7.984,12.549,10.831,14.478,10.309,19.291,15.394,141.0,626.0
2015-01-26,Milan,Italy,9.1667,45.4501,[8.6667 44.9501 9.6667 45.9501],10.309,7.97,12.702,10.898,14.679,10.771,19.444,15.724,134.0,629.0
2015-01-27,Milan,Italy,9.1667,45.4501,[8.6667 44.9501 9.6667 45.9501],10.309,7.97,12.702,10.978,14.216,10.377,19.163,15.176,127.0,631.0
2015-01-28,Milan,Italy,9.1667,45.4501,[8.6667 44.9501 9.6667 45.9501],10.309,7.97,12.702,10.978,13.728,9.168,18.894,14.771,127.0,617.0
2015-01-29,Milan,Italy,9.1667,45.4501,[8.6667 44.9501 9.6667 45.9501],10.309,7.97,12.702,10.978,13.021,8.912,17.098,13.767,127.0,623.0
2015-01-30,Milan,Italy,9.1667,45.4501,[8.6667 44.9501 9.6667 45.9501],10.309,7.97,12.702,10.978,12.622,8.142,16.341,12.905,127.0,628.0
2015-01-31,Milan,Italy,9.1667,45.4501,[8.6667 44.9501 9.6667 45.9501],10.309,7.966,12.79,10.998,12.422,7.819,16.779,12.964,95.0,618.0
2015-02-01,Milan,Italy,9.1667,45.4501,[8.6667 44.9501 9.6667 45.9501],10.264,7.475,12.702,10.703,11.63,7.71,15.653,12.343,101.0,616.0
2015-02-02,Milan,Italy,9.1667,45.4501,[8.6667 44.9501 9.6667 45.9501],10.675,7.958,14.281,11.436,10.912,6.286,15.926,11.598,64.0,616.0
2015-02-03,Milan,Italy,9.1667,45.4501,[8.6667 44.9501 9.6667 45.9501],11.348,8.185,15.157,12.03,9.582,6.185,13.349,10.342,103.0,618.0
2015-02-04,Milan,Italy,9.1667,45.4501,[8.6667 44.9501 9.6667 45.9501],11.348,8.185,15.157,12.03,9.732,6.133,13.448,10.275,103.0,615.0
2015-02-05,Milan,Italy,9.1667,45.4501,[8.6667 44.9501 9.6667 45.9501],12.098,8.193,16.142,13.097,9.274,5.841,13.658,10.484,97.0,625.0
2015-02-06,Milan,Italy,9.1667,45.4501,[8.6667 44.9501 9.6667 45.9501],11.997,8.193,15.728,13.066,8.927,5.579,12.724,10.185,99.0,610.0
2015-02-07,Milan,Italy,9.1667,45.4501,[8.6667 44.9501 9.6667 45.9501],12.16,8.363,16.556,13.379,9.359,5.563,13.514,10.427,83.0,610.0
2015-02-08,Milan,Italy,9.1667,45.4501,[8.6667 44.9501 9.6667 45.9501],12.16,8.363,16.556,13.379,9.22,5.61,13.509,10.373,83.0,617.0
2015-02-09,Milan,Italy,9.1667,45.4501,[8.6667 44.9501 9.6667 45.9501],12.968,8.986,19.002,14.442,9.686,5.459,14.023,10.469,51.0,612.0
2015-02-10,Milan,Italy,9.1667,45.4501,[8.6667 44.9501 9.6667 45.9501],12.126,8.232,18.929,13.974,9.27,5.501,13.914,10.479,83.0,617.0
2015-02-11,Milan,Italy,9.1667,45.4501,[8.6667 44.9501 9.6667 45.9501],12.126,8.232,18.929,13.974,9.476,5.996,14.077,10.731,83.0,579.0
2015-02-12,Milan,Italy,9.1667,45.4501,[8.6667 44.9501 9.6667 45.9501],11.826,8.475,16.677,13.375,9.866,6.498,14.212,11.022,105.0,582.0
2015-02-13,Milan,Italy,9.1667,45.4501,[8.6667 44.9501 9.6667 45.9501],12.126,8.541,17.216,14.003,10.117,6.497,14.252,11.209,131.0,570.0
2015-02-14,Milan,Italy,9.1667,45.4501,[8.6667 44.9501 9.6667 45.9501],12.126,8.541,17.216,14.003,10.137,6.646,14.324,11.293,131.0,577.0
2015-02-15,Milan,Italy,9.1667,45.4501,[8.6667 44.9501 9.6667 45.9501],11.098,8.062,16.677,13.375,9.876,6.503,14.204,11.165,145.0,586.0
2015-02-16,Milan,Italy,9.1667,45.4501,[8.6667 44.9501 9.6667 45.9501],11.753,8.475,16.677,13.662,9.778,6.57,14.079,10.927,139.0,580.0
2015-02-17,Milan,Italy,9.1667,45.4501,[8.6667 44.9501 9.6667 45.9501],11.753,8.475,16.677,13.662,9.936,6.635,14.155,11.064,139.0,584.0
2015-02-18,Milan,Italy,9.1667,45.4501,[8.6667 44.9501 9.6667 45.9501],10.701,7.744,17.077,13.975,9.618,6.287,13.793,10.789,100.0,583.0
2015-02-19,Milan,Italy,9.1667,45.4501,[8.6667 44.9501 9.6667 45.9501],12.427,8.475,18.584,14.536,9.845,6.408,13.981,10.88,115.0,584.0
2015-02-20,Milan,Italy,9.1667,45.4501,[8.6667 44.9501 9.6667 45.9501],10.962,8.475,17.083,13.566,9.641,6.558,13.97,10.927,111.0,580.0
2015-02-21,Milan,Italy,9.1667,45.4501,[8.6667 44.9501 9.6667 45.9501],10.962,8.475,17.083,13.556,10.16,7.242,14.314,11.472,110.0,590.0
2015-02-22,Milan,Italy,9.1667,45.4501,[8.6667 44.9501 9.6667 45.9501],10.962,8.062,16.768,13.183,9.525,6.834,13.783,10.996,136.0,577.0
2015-02-23,Milan,Italy,9.1667,45.4501,[8.6667 44.9501 9.6667 45.9501],10.962,8.062,16.768,13.183,9.62,6.969,13.781,11.047,136.0,578.0
2015-02-24,Milan,Italy,9.1667,45.4501,[8.6667 44.9501 9.6667 45.9501],9.903,6.771,16.3,12.057,9.203,6.525,13.465,10.693,167.0,583.0
2015-02-25,Milan,Italy,9.1667,45.4501,[8.6667 44.9501 9.6667 45.9501],9.587,6.729,15.126,11.679,9.248,6.355,13.26,10.575,135.0,576.0
2015-02-26,Milan,Italy,9.1667,45.4501,[8.6667 44.9501 9.6667 45.9501],8.942,5.701,13.021,10.389,8.663,5.563,12.245,9.721,170.0,621.0
2015-02-27,Milan,Italy,9.1667,45.4501,[8.6667 44.9501 9.6667 45.9501],8.521,5.497,12.386,10.133,8.551,5.532,12.043,9.644,148.0,626.0
2015-02-28,Milan,Italy,9.1667,45.4501,[8.6667 44.9501 9.6667 45.9501],8.525,5.687,12.159,9.599,7.841,5.213,11.432,9.079,143.0,625.0
2015-03-01,Milan,Italy,9.1667,45.4501,[8.6667 44.9501 9.6667 45.9501],8.816,5.687,12.677,9.678,7.597,5.127,11.165,8.769,171.0,613.0
2015-03-02,Milan,Italy,9.1667,45.4501,[8.6667 44.9501 9.6667 45.9501],9.284,5.824,13.125,10.224,7.542,4.96,11.027,8.876,161.0,619.0
2015-03-03,Milan,Italy,9.1667,45.4501,[8.6667 44.9501 9.6667 45.9501],9.715,6.0,13.609,10.705,7.599,5.025,11.277,8.949,186.0,627.0
2015-03-04,Milan,Italy,9.1667,45.4501,[8.6667 44.9501 9.6667 45.9501],9.715,6.0,13.609,10.705,7.612,5.048,11.192,9.011,186.0,615.0
2015-03-05,Milan,Italy,9.1667,45.4501,[8.6667 44.9501 9.6667 45.9501],9.939,6.729,14.556,10.97,7.96,5.299,11.924,9.236,218.0,616.0
2015-03-06,Milan,Italy,9.1667,45.4501,[8.6667 44.9501 9.6667 45.9501],9.284,6.403,12.78,10.3,7.642,5.271,11.899,9.265,203.0,617.0
2015-03-07,Milan,Italy,9.1667,45.4501,[8.6667 44.9501 9.6667 45.9501],9.25,6.262,12.677,10.199,7.549,5.243,11.786,9.105,210.0,621.0
2015-03-08,Milan,Italy,9.1667,45.4501,[8.6667 44.9501 9.6667 45.9501],9.25,6.262,12.677,10.215,7.446,5.206,11.329,8.709,209.0,618.0
2015-03-09,Milan,Italy,9.1667,45.4501,[8.6667 44.9501 9.6667 45.9501],9.255,6.262,12.677,10.217,7.483,5.166,10.886,8.645,183.0,627.0
2015-03-10,Milan,Italy,9.1667,45.4501,[8.6667 44.9501 9.6667 45.9501],9.255,6.262,12.677,10.217,7.729,5.272,11.057,8.784,183.0,613.0
2015-03-11,Milan,Italy,9.1667,45.4501,[8.6667 44.9501 9.6667 45.9501],9.719,6.785,13.689,10.662,7.592,5.245,10.961,8.65,152.0,614.0
2015-03-12,Milan,Italy,9.1667,45.4501,[8.6667 44.9501 9.6667 45.9501],9.778,6.904,14.556,11.053,7.604,5.353,11.132,8.872,179.0,623.0
2015-03-13,Milan,Italy,9.1667,45.4501,[8.6667 44.9501 9.6667 45.9501],10.379,7.85,15.533,12.387,7.872,5.436,11.198,9.104,144.0,618.0
2015-03-14,Milan,Italy,9.1667,45.4501,[8.6667 44.9501 9.6667 45.9501],10.379,7.85,15.533,12.387,7.669,5.324,11.106,8.969,144.0,619.0
2015-03-15,Milan,Italy,9.1667,45.4501,[8.6667 44.9501 9.6667 45.9501],10.72,7.696,15.533,12.601,7.713,5.513,11.432,9.062,123.0,583.0
2015-03-16,Milan,Italy,9.1667,45.4501,[8.6667 44.9501 9.6667 45.9501],10.025,7.279,15.016,12.005,7.819,5.501,11.708,9.072,110.0,583.0
2015-03-17,Milan,Italy,9.1667,45.4501,[8.6667 44.9501 9.6667 45.9501],9.914,7.118,14.97,11.774,8.107,5.632,12.16,9.345,106.0,571.0
2015-03-18,Milan,Italy,9.1667,45.4501,[8.6667 44.9501 9.6667 45.9501],9.528,6.785,14.556,11.18,7.705,5.539,11.909,9.187,81.0,578.0
2015-03-19,Milan,Italy,9.1667,45.4501,[8.6667 44.9501 9.6667 45.9501],9.528,6.785,14.556,11.169,7.576,5.134,11.655,8.805,82.0,586.0
2015-03-20,Milan,Italy,9.1667,45.4501,[8.6667 44.9501 9.6667 45.9501],8.406,6.281,14.067,10.539,7.53,5.075,11.532,8.945,50.0,580.0
2015-03-21,Milan,Italy,9.1667,45.4501,[8.6667 44.9501 9.6667 45.9501],7.485,5.516,10.118,8.9,7.291,4.978,10.86,8.481,85.0,583.0
2015-03-22,Milan,Italy,9.1667,45.4501,[8.6667 44.9501 9.6667 45.9501],7.524,5.287,10.356,9.023,7.33,5.023,10.705,8.532,78.0,582.0
2015-03-23,Milan,Italy,9.1667,45.4501,[8.6667 44.9501 9.6667 45.9501],7.102,4.644,9.528,8.324,7.158,5.006,10.416,8.321,106.0,583.0
2015-03-24,Milan,Italy,9.1667,45.4501,[8.6667 44.9501 9.6667 45.9501],7.102,4.644,9.528,8.324,7.457,5.104,10.847,8.566,106.0,580.0
2015-03-25,Milan,Italy,9.1667,45.4501,[8.6667 44.9501 9.6667 45.9501],6.285,3.783,8.549,7.52,7.164,4.847,10.452,8.241,118.0,591.0
2015-03-26,Milan,Italy,9.1667,45.4501,[8.6667 44.9501 9.6667 45.9501],6.281,3.756,8.549,7.341,7.088,4.747,10.511,8.215,144.0,578.0
2015-03-27,Milan,Italy,9.1667,45.4501,[8.6667 44.9501 9.6667 45.9501],4.492,3.008,7.102,5.62,6.742,4.534,10.47,7.877,129.0,574.0
2015-03-28,Milan,Italy,9.1667,45.4501,[8.6667 44.9501 9.6667 45.9501],4.792,3.008,7.102,5.627,6.866,4.622,10.461,7.953,132.0,583.0
2015-03-29,Milan,Italy,9.1667,45.4501,[8.6667 44.9501 9.6667 45.9501],4.792,3.008,7.102,5.627,6.805,4.621,10.335,7.951,132.0,579.0
2015-03-30,Milan,Italy,9.1667,45.4501,[8.6667 44.9501 9.6667 45.9501],4.401,2.949,7.089,5.364,6.81,4.575,10.039,7.664,170.0,623.0
2015-03-31,Milan,Italy,9.1667,45.4501,[8.6667 44.9501 9.6667 45.9501],4.123,2.796,7.014,4.952,6.584,4.511,9.957,7.662,155.0,628.0
2015-04-01,Milan,Italy,9.1667,45.4501,[8.6667 44.9501 9.6667 45.9501],4.26,2.949,7.156,5.325,6.061,4.153,9.325,7.154,179.0,627.0
2015-04-02,Milan,Italy,9.1667,45.4501,[8.6667 44.9501 9.6667 45.9501],4.401,3.008,7.75,6.069,5.962,4.049,9.414,7.177,207.0,615.0
2015-04-03,Milan,Italy,9.1667,45.4501,[8.6667 44.9501 9.6667 45.9501],4.934,3.091,8.262,6.382,6.142,4.11,9.575,7.35,220.0,621.0
2015-04-04,Milan,Italy,9.1667,45.4501,[8.6667 44.9501 9.6667 45.9501],4.792,3.008,8.196,6.2,5.718,3.769,8.544,6.721,245.0,626.0
2015-04-05,Milan,Italy,9.1667,45.4501,[8.6667 44.9501 9.6667 45.9501],4.503,2.949,8.196,6.176,5.579,3.689,8.472,6.659,210.0,618.0
2015-04-06,Milan,Italy,9.1667,45.4501,[8.6667 44.9501 9.6667 45.9501],4.492,3.069,8.196,6.252,5.213,3.424,8.281,6.379,247.0,620.0
2015-04-07,Milan,Italy,9.1667,45.4501,[8.6667 44.9501 9.6667 45.9501],4.44,3.044,8.437,6.251,5.024,3.373,8.399,6.404,219.0,656.0
2015-04-08,Milan,Italy,9.1667,45.4501,[8.6667 44.9501 9.6667 45.9501],4.94,3.194,8.73,6.51,5.039,3.294,8.449,6.345,254.0,686.0
2015-04-09,Milan,Italy,9.1667,45.4501,[8.6667 44.9501 9.6667 45.9501],5.749,3.217,9.386,6.842,4.874,3.166,8.404,6.264,242.0,694.0
2015-04-10,Milan,Italy,9.1667,45.4501,[8.6667 44.9501 9.6667 45.9501],6.079,3.256,9.404,6.932,5.173,3.296,8.599,6.443,216.0,702.0
2015-04-11,Milan,Italy,9.1667,45.4501,[8.6667 44.9501 9.6667 45.9501],6.609,3.566,9.755,7.387,5.203,3.382,8.551,6.46,226.0,691.0
2015-04-12,Milan,Italy,9.1667,45.4501,[8.6667 44.9501 9.6667 45.9501],6.589,3.522,9.755,7.327,5.199,3.354,8.343,6.352,227.0,687.0
2015-04-13,Milan,Italy,9.1667,45.4501,[8.6667 44.9501 9.6667 45.9501],6.445,3.987,10.26,7.344,5.35,3.501,8.327,6.373,262.0,695.0
2015-04-14,Milan,Italy,9.1667,45.4501,[8.6667 44.9501 9.6667 45.9501],6.973,4.493,10.774,7.883,5.349,3.512,8.314,6.332,224.0,691.0
2015-04-15,Milan,Italy,9.1667,45.4501,[8.6667 44.9501 9.6667 45.9501],7.15,4.549,10.564,7.894,5.295,3.563,8.151,6.214,262.0,695.0
2015-04-16,Milan,Italy,9.1667,45.4501,[8.6667 44.9501 9.6667 45.9501],7.15,4.59,10.774,7.938,5.423,3.53,8.178,6.274,238.0,659.0
2015-04-17,Milan,Italy,9.1667,45.4501,[8.6667 44.9501 9.6667 45.9501],6.973,4.709,10.269,7.53,5.541,3.574,8.221,6.287,233.0,717.0
2015-04-18,Milan,Italy,9.1667,45.4501,[8.6667 44.9501 9.6667 45.9501],6.589,4.536,9.755,7.355,5.229,3.342,7.841,5.997,219.0,703.0
2015-04-19,Milan,Italy,9.1667,45.4501,[8.6667 44.9501 9.6667 45.9501],6.973,4.719,10.277,7.67,5.369,3.358,7.904,6.017,194.0,747.0
2015-04-20,Milan,Italy,9.1667,45.4501,[8.6667 44.9501 9.6667 45.9501],6.973,4.719,10.277,7.67,5.399,3.359,8.016,6.057,194.0,774.0
2015-04-21,Milan,Italy,9.1667,45.4501,[8.6667 44.9501 9.6667 45.9501],7.191,5.309,10.343,7.912,5.365,3.617,7.969,6.097,157.0,766.0
2015-04-22,Milan,Italy,9.1667,45.4501,[8.6667 44.9501 9.6667 45.9501],7.33,5.311,10.423,7.953,5.433,3.519,8.038,6.079,162.0,732.0
2015-04-23,Milan,Italy,9.1667,45.4501,[8.6667 44.9501 9.6667 45.9501],7.15,5.109,10.503,7.941,5.454,3.41,7.917,5.962,127.0,705.0
2015-04-24,Milan,Italy,9.1667,45.4501,[8.6667 44.9501 9.6667 45.9501],7.15,5.109,10.503,7.941,5.42,3.452,7.759,5.939,127.0,696.0
2015-04-25,Milan,Italy,9.1667,45.4501,[8.6667 44.9501 9.6667 45.9501],7.15,5.109,10.503,7.941,5.435,3.418,7.589,5.827,127.0,695.0
2015-04-26,Milan,Italy,9.1667,45.4501,[8.6667 44.9501 9.6667 45.9501],7.15,5.131,10.277,7.87,5.415,3.502,7.564,5.859,105.0,702.0
2015-04-27,Milan,Italy,9.1667,45.4501,[8.6667 44.9501 9.6667 45.9501],7.191,5.311,10.503,8.013,5.453,3.609,7.654,5.932,102.0,691.0
2015-04-28,Milan,Italy,9.1667,45.4501,[8.6667 44.9501 9.6667 45.9501],8.006,5.869,11.589,8.332,5.378,3.422,7.663,5.76,67.0,690.0
2015-04-29,Milan,Italy,9.1667,45.4501,[8.6667 44.9501 9.6667 45.9501],6.095,4.053,8.91,7.013,5.213,3.335,7.431,5.711,87.0,689.0
2015-04-30,Milan,Italy,9.1667,45.4501,[8.6667 44.9501 9.6667 45.9501],4.522,3.747,8.423,6.405,4.955,3.314,7.339,5.626,49.0,683.0
2015-05-01,Milan,Italy,9.1667,45.4501,[8.6667 44.9501 9.6667 45.9501],4.635,3.747,7.807,6.187,4.84,3.406,7.122,5.512,61.0,727.0
2015-05-02,Milan,Italy,9.1667,45.4501,[8.6667 44.9501 9.6667 45.9501],4.053,2.982,4.668,4.626,4.777,3.352,6.771,5.339,38.0,671.0
2015-05-03,Milan,Italy,9.1667,45.4501,[8.6667 44.9501 9.6667 45.9501],3.745,2.75,4.504,3.96,4.917,3.478,6.801,5.393,64.0,675.0
2015-05-04,Milan,Italy,9.1667,45.4501,[8.6667 44.9501 9.6667 45.9501],3.82,2.803,4.635,4.381,4.925,3.559,6.832,5.463,92.0,626.0
2015-05-05,Milan,Italy,9.1667,45.4501,[8.6667 44.9501 9.6667 45.9501],4.042,2.982,4.968,4.444,4.804,3.483,6.471,5.284,109.0,613.0
2015-05-06,Milan,Italy,9.1667,45.4501,[8.6667 44.9501 9.6667 45.9501],4.053,3.02,5.254,4.818,4.646,3.12,6.639,5.227,137.0,619.0
2015-05-07,Milan,Italy,9.1667,45.4501,[8.6667 44.9501 9.6667 45.9501],4.042,2.982,5.176,4.69,4.531,3.053,6.401,5.093,132.0,633.0
2015-05-08,Milan,Italy,9.1667,45.4501,[8.6667 44.9501 9.6667 45.9501],4.042,2.982,5.176,4.647,4.522,3.26,6.299,5.213,136.0,630.0
2015-05-09,Milan,Italy,9.1667,45.4501,[8.6667 44.9501 9.6667 45.9501],4.042,2.982,5.176,4.647,4.506,3.071,6.543,5.214,136.0,666.0
2015-05-10,Milan,Italy,9.1667,45.4501,[8.6667 44.9501 9.6667 45.9501],3.639,2.48,4.635,4.089,4.192,2.945,6.212,4.967,171.0,697.0
2015-05-11,Milan,Italy,9.1667,45.4501,[8.6667 44.9501 9.6667 45.9501],3.639,2.47,4.668,4.127,4.445,3.009,6.355,5.233,190.0,710.0
2015-05-12,Milan,Italy,9.1667,45.4501,[8.6667 44.9501 9.6667 45.9501],3.82,2.608,5.237,4.296,4.415,2.975,6.371,5.146,203.0,717.0
2015-05-13,Milan,Italy,9.1667,45.4501,[8.6667 44.9501 9.6667 45.9501],3.82,2.597,5.254,4.325,4.447,3.0,6.551,5.18,216.0,703.0
2015-05-14,Milan,Italy,9.1667,45.4501,[8.6667 44.9501 9.6667 45.9501],3.93,2.48,5.852,4.464,4.456,2.846,6.647,5.18,199.0,709.0
2015-05-15,Milan,Italy,9.1667,45.4501,[8.6667 44.9501 9.6667 45.9501],3.82,2.467,5.839,4.396,4.513,2.951,6.518,5.113,210.0,712.0
2015-05-16,Milan,Italy,9.1667,45.4501,[8.6667 44.9501 9.6667 45.9501],3.698,2.306,5.506,4.304,4.192,2.747,6.205,4.921,198.0,707.0
2015-05-17,Milan,Italy,9.1667,45.4501,[8.6667 44.9501 9.6667 45.9501],3.941,2.467,5.564,4.361,4.418,2.819,6.223,4.952,220.0,711.0
2015-05-18,Milan,Italy,9.1667,45.4501,[8.6667 44.9501 9.6667 45.9501],4.266,2.669,5.957,4.662,4.519,2.879,6.415,5.039,194.0,672.0
2015-05-19,Milan,Italy,9.1667,45.4501,[8.6667 44.9501 9.6667 45.9501],4.266,2.633,6.064,4.703,4.635,2.953,6.36,5.066,177.0,703.0
2015-05-20,Milan,Italy,9.1667,45.4501,[8.6667 44.9501 9.6667 45.9501],4.257,2.497,6.218,4.733,4.561,3.048,6.393,5.066,190.0,688.0
2015-05-21,Milan,Italy,9.1667,45.4501,[8.6667 44.9501 9.6667 45.9501],4.335,2.633,6.044,4.551,4.671,3.094,6.397,5.083,202.0,734.0
2015-05-22,Milan,Italy,9.1667,45.4501,[8.6667 44.9501 9.6667 45.9501],4.424,2.683,6.238,4.823,4.526,3.088,6.236,5.022,225.0,740.0
2015-05-23,Milan,Italy,9.1667,45.4501,[8.6667 44.9501 9.6667 45.9501],4.557,2.683,6.265,4.854,4.529,3.041,6.103,4.946,221.0,736.0
2015-05-24,Milan,Italy,9.1667,45.4501,[8.6667 44.9501 9.6667 45.9501],4.557,2.683,6.265,4.854,4.456,3.083,6.162,4.899,221.0,701.0
2015-05-25,Milan,Italy,9.1667,45.4501,[8.6667 44.9501 9.6667 45.9501],5.209,3.655,6.756,5.518,4.476,3.121,6.05,4.912,186.0,671.0
2015-05-26,Milan,Italy,9.1667,45.4501,[8.6667 44.9501 9.6667 45.9501],4.557,2.663,6.238,4.846,4.067,2.697,5.587,4.444,199.0,659.0
2015-05-27,Milan,Italy,9.1667,45.4501,[8.6667 44.9501 9.6667 45.9501],4.266,2.492,6.049,4.697,3.931,2.647,5.48,4.339,207.0,657.0
2015-05-28,Milan,Italy,9.1667,45.4501,[8.6667 44.9501 9.6667 45.9501],4.288,2.753,5.97,4.736,3.934,2.711,5.404,4.345,222.0,667.0
2015-05-29,Milan,Italy,9.1667,45.4501,[8.6667 44.9501 9.6667 45.9501],4.295,2.829,6.029,4.827,3.917,2.738,5.348,4.333,246.0,655.0
2015-05-30,Milan,Italy,9.1667,45.4501,[8.6667 44.9501 9.6667 45.9501],4.267,2.852,5.97,4.804,3.831,2.688,5.355,4.257,254.0,659.0
2015-05-31,Milan,Italy,9.1667,45.4501,[8.6667 44.9501 9.6667 45.9501],3.93,2.498,5.509,4.467,3.865,2.649,5.36,4.245,286.0,666.0
2015-06-01,Milan,Italy,9.1667,45.4501,[8.6667 44.9501 9.6667 45.9501],3.802,2.489,5.509,4.44,3.707,2.578,5.124,4.094,264.0,662.0
2015-06-02,Milan,Italy,9.1667,45.4501,[8.6667 44.9501 9.6667 45.9501],3.863,2.497,5.465,4.418,3.664,2.579,5.009,4.03,279.0,707.0
2015-06-03,Milan,Italy,9.1667,45.4501,[8.6667 44.9501 9.6667 45.9501],3.682,2.449,5.312,4.25,3.523,2.388,4.799,3.829,268.0,682.0
2015-06-04,Milan,Italy,9.1667,45.4501,[8.6667 44.9501 9.6667 45.9501],3.91,2.663,5.267,4.254,3.319,2.285,4.494,3.647,256.0,682.0
2015-06-05,Milan,Italy,9.1667,45.4501,[8.6667 44.9501 9.6667 45.9501],3.599,2.449,5.208,4.116,3.187,2.209,4.413,3.575,220.0,630.0
2015-06-06,Milan,Italy,9.1667,45.4501,[8.6667 44.9501 9.6667 45.9501],3.53,2.347,4.94,3.829,3.017,2.049,4.174,3.332,197.0,617.0
2015-06-07,Milan,Italy,9.1667,45.4501,[8.6667 44.9501 9.6667 45.9501],3.53,2.347,4.94,3.829,2.976,1.99,4.118,3.272,197.0,624.0
2015-06-08,Milan,Italy,9.1667,45.4501,[8.6667 44.9501 9.6667 45.9501],3.53,2.347,4.94,3.829,2.928,1.984,4.028,3.228,197.0,635.0
2015-06-09,Milan,Italy,9.1667,45.4501,[8.6667 44.9501 9.6667 45.9501],3.488,2.266,4.94,3.786,2.849,1.845,3.948,3.135,201.0,639.0
2015-06-10,Milan,Italy,9.1667,45.4501,[8.6667 44.9501 9.6667 45.9501],3.697,2.829,5.209,4.153,2.893,1.981,4.089,3.242,169.0,682.0
2015-06-11,Milan,Italy,9.1667,45.4501,[8.6667 44.9501 9.6667 45.9501],3.928,2.953,5.264,4.209,2.932,2.036,4.139,3.273,178.0,716.0
2015-06-12,Milan,Italy,9.1667,45.4501,[8.6667 44.9501 9.6667 45.9501],3.67,2.629,5.04,4.035,2.894,1.949,4.032,3.193,173.0,725.0
2015-06-13,Milan,Italy,9.1667,45.4501,[8.6667 44.9501 9.6667 45.9501],3.33,2.449,4.426,3.611,2.849,1.933,4.05,3.14,175.0,733.0
2015-06-14,Milan,Italy,9.1667,45.4501,[8.6667 44.9501 9.6667 45.9501],3.221,2.232,4.416,3.524,2.904,1.938,4.175,3.198,179.0,720.0
2015-06-15,Milan,Italy,9.1667,45.4501,[8.6667 44.9501 9.6667 45.9501],3.497,2.522,4.727,3.747,2.883,1.893,4.123,3.152,156.0,720.0
2015-06-16,Milan,Italy,9.1667,45.4501,[8.6667 44.9501 9.6667 45.9501],3.359,2.522,4.749,3.736,2.886,1.883,4.111,3.14,174.0,727.0
2015-06-17,Milan,Italy,9.1667,45.4501,[8.6667 44.9501 9.6667 45.9501],3.356,2.446,4.622,3.675,2.923,1.887,4.089,3.128,159.0,722.0
2015-06-18,Milan,Italy,9.1667,45.4501,[8.6667 44.9501 9.6667 45.9501],3.559,2.522,4.877,3.89,2.985,1.96,4.151,3.213,191.0,722.0
2015-06-19,Milan,Italy,9.1667,45.4501,[8.6667 44.9501 9.6667 45.9501],3.356,2.232,4.546,3.736,2.918,1.932,4.113,3.179,173.0,686.0
2015-06-20,Milan,Italy,9.1667,45.4501,[8.6667 44.9501 9.6667 45.9501],3.405,2.34,4.373,3.688,2.928,1.952,4.129,3.175,187.0,716.0
2015-06-21,Milan,Italy,9.1667,45.4501,[8.6667 44.9501 9.6667 45.9501],3.316,2.232,4.359,3.527,3.02,1.999,4.224,3.266,216.0,702.0
2015-06-22,Milan,Italy,9.1667,45.4501,[8.6667 44.9501 9.6667 45.9501],3.303,2.221,4.252,3.48,3.054,2.036,4.195,3.271,254.0,747.0
2015-06-23,Milan,Italy,9.1667,45.4501,[8.6667 44.9501 9.6667 45.9501],3.2,2.221,4.204,3.444,3.053,2.087,4.225,3.28,287.0,754.0
2015-06-24,Milan,Italy,9.1667,45.4501,[8.6667 44.9501 9.6667 45.9501],3.257,2.232,4.204,3.474,3.017,2.111,4.206,3.299,283.0,746.0
2015-06-25,Milan,Italy,9.1667,45.4501,[8.6667 44.9501 9.6667 45.9501],3.257,2.323,4.359,3.552,2.983,2.111,4.215,3.283,314.0,705.0
2015-06-26,Milan,Italy,9.1667,45.4501,[8.6667 44.9501 9.6667 45.9501],3.058,2.232,4.043,3.427,2.962,2.064,4.182,3.266,283.0,674.0
2015-06-27,Milan,Italy,9.1667,45.4501,[8.6667 44.9501 9.6667 45.9501],2.989,2.209,3.978,3.29,2.924,2.081,4.086,3.22,298.0,665.0
2015-06-28,Milan,Italy,9.1667,45.4501,[8.6667 44.9501 9.6667 45.9501],3.022,2.161,4.013,3.319,2.873,1.988,4.065,3.172,290.0,663.0